{"data":{"norad_id":63883,"intl_designator":"2025-094V","name":"STARLINK-33968","alt_names":[],"object_type":"PAYLOAD","status":"ACTIVE","operator":null,"country":"US","launch_date":"2025-05-10","launch_site_code":"AFWTR","launch_vehicle":null,"mission":null,"orbit_class":"UNKNOWN","rcs_meters":null,"size_class":null,"mass_kg":null,"dimensions":null,"purposes":["comms"],"wikipedia_slug":null,"has_3d_model":false,"image_url":null,"decayed_at":null,"tle_current":{"epoch":"2026-05-25T02:17:04.739136Z","epoch_age_seconds":57098,"freshness":"FRESH","line1":"1 63883U 25094V   26145.09519374  .00003818  00000+0  32743-3 0  9995","line2":"2 63883  70.0025  41.9838 0002680 266.7330  93.3523 14.98352519 58645","mean_motion":14.98352519,"eccentricity":0.000268,"inclination_deg":70.0025,"raan_deg":41.9838,"arg_perigee_deg":266.733,"mean_anomaly_deg":93.3523,"bstar":0.00032743,"rev_number":5864,"period_min":96.105554716927,"perigee_km":570.1236206347,"apogee_km":573.84888669867,"semimajor_km":6950.1232536667,"source":"CELESTRAK","updated_at":"2026-05-25T13:38:20.173213Z"}}}